Location: Unspecified
(0.0000°N, 0.0000°E)
Time: 01:17:42
(UTC+00:00)

ISS - Visible Passes

Search period start: 16 July 2018 00:00
Search period end: 26 July 2018 00:00
Orbit: 402 x 408 km, 51.6° (Epoch: 16 July)

Date Brightness Start Highest point End Pass type
(mag) Time Alt. Az. Time Alt. Az. Time Alt. Az.
17 Jul -3.8 19:22:53 10° SW 19:26:08 77° NW 19:28:13 20° NNE visible
18 Jul -3.2 18:31:07 10° SSW 18:34:06 33° SE 18:37:05 10° ENE visible
19 Jul -0.7 19:16:02 10° W 19:18:20 18° NW 19:20:38 10° N visible
22 Jul -1.6 05:05:14 10° N 05:08:08 29° NE 05:11:03 10° ESE visible
23 Jul -0.4 04:14:46 10° NNE 04:16:02 12° NE 04:17:18 10° ENE visible
24 Jul -3.9 04:58:09 20° NW 05:00:12 58° SW 05:03:27 10° SSE visible
